FW6937 Weather Reports


Display with metric or nautical units.
time (UTC)temp
F
wind
direction
speed
MPH
gust
MPH
rain 1hr
in
rain 24hr
in
rain mn
in
humidity
%
barometer
mb
20260504141057 60 259 2.0 3.0 0.00 0.00 0.00 64 1018.1
20260504140557 60 242 1.0 3.0 0.00 0.00 0.00 66 1018.0
20260504130559 54 55 0.0 1.0 0.00 0.00 0.00 79 1018.2
20260504130436 53 0 0.0 1.0 0.00 0.00 0.00 79 1018.2
20260504120110 48 0 0.0 1.0 0.00 0.00 0.00 89 1018.2
20260504110557 46 12 0.0 1.0 0.00 0.00 0.00 89 1017.9
20260504100557 47 42 1.0 2.0 0.00 0.00 0.00 88 1017.6
20260504100115 47 41 1.0 2.0 0.00 0.00 0.00 87 1017.6
20260504081556 48 21 1.0 2.0 0.00 0.00 0.00 82 1017.4
20260504081057 48 20 1.0 2.0 0.00 0.00 0.00 82 1017.4
20260504080557 48 30 1.0 2.0 0.00 0.00 0.00 81 1017.4
20260504060104 52 0 0.0 1.0 0.00 0.00 0.00 76 1018.0
20260504050556 54 0 0.0 1.0 0.00 0.00 0.00 68 1018.0
20260504050113 54 0 0.0 1.0 0.00 0.00 0.00 68 1017.9
20260504045557 54 0 0.0 1.0 0.00 0.00 0.00 68 1017.8
20260504045057 54 263 0.0 1.0 0.00 0.00 0.00 68 1017.9
20260504044557 55 0 0.0 1.0 0.00 0.00 0.00 67 1017.9
20260504044055 55 266 0.0 1.0 0.00 0.00 0.00 66 1017.9
20260504043600 55 266 1.0 1.0 0.00 0.00 0.00 67 1018.0
20260504043104 55 262 0.0 1.0 0.00 0.00 0.00 67 1018.0
20260504042557 55 259 0.0 1.0 0.00 0.00 0.00 69 1017.9
20260504042102 55 259 1.0 1.0 0.00 0.00 0.00 69 1017.9
20260504041558 55 259 0.0 1.0 0.00 0.00 0.00 69 1017.9
20260504041054 55 258 1.0 2.0 0.00 0.00 0.00 71 1018.0
20260504040600 55 257 1.0 2.0 0.00 0.00 0.00 71 1018.0
20260504040104 55 255 1.0 1.0 0.00 0.00 0.00 72 1018.0
20260504035558 55 269 1.0 2.0 0.00 0.00 0.00 71 1018.0
20260504035058 55 269 0.0 2.0 0.00 0.00 0.00 72 1018.0
20260504034616 55 268 1.0 2.0 0.00 0.00 0.00 71 1018.1
20260504034058 55 19 0.0 1.0 0.00 0.00 0.00 70 1018.0
20260504033557 55 19 0.0 1.0 0.00 0.00 0.00 70 1018.0
20260504033103 54 0 0.0 2.0 0.00 0.00 0.00 67 1018.1
20260504032557 54 0 0.0 2.0 0.00 0.00 0.00 66 1018.2
20260504032055 54 19 1.0 2.0 0.00 0.00 0.00 68 1018.1
20260504031602 55 0 0.0 1.0 0.00 0.00 0.00 67 1018.1
20260504031059 55 7 0.0 2.0 0.00 0.00 0.00 65 1018.1
20260504030555 55 7 1.0 2.0 0.00 0.00 0.00 66 1018.1
20260504030054 55 7 1.0 2.0 0.00 0.00 0.00 66 1018.2
20260504025555 55 8 1.0 1.0 0.00 0.00 0.00 65 1018.2
20260504025055 55 8 0.0 1.0 0.00 0.00 0.00 64 1018.1
20260504024559 55 9 1.0 1.0 0.00 0.00 0.00 63 1018.1
20260504024055 56 6 0.0 1.0 0.00 0.00 0.00 62 1018.0
20260504023555 56 0 0.0 1.0 0.00 0.00 0.00 61 1018.0
20260504023057 56 0 0.0 1.0 0.00 0.00 0.00 61 1017.9
20260504022558 56 6 0.0 2.0 0.00 0.00 0.00 62 1017.9
20260504022055 56 5 1.0 2.0 0.00 0.00 0.00 61 1018.0
20260504021600 56 348 0.0 1.0 0.00 0.00 0.00 60 1017.9
20260504021055 57 0 0.0 1.0 0.00 0.00 0.00 58 1017.9
20260504020555 57 348 1.0 1.0 0.00 0.00 0.00 58 1017.8
20260504020112 58 264 0.0 1.0 0.00 0.00 0.00 57 1017.7
20260504015556 58 264 0.0 1.0 0.00 0.00 0.00 56 1017.7
20260504015055 59 0 0.0 1.0 0.00 0.00 0.00 54 1017.6
20260504014600 59 264 0.0 1.0 0.00 0.00 0.00 53 1017.4
20260504014054 59 264 0.0 1.0 0.00 0.00 0.00 52 1017.4
20260504013555 59 0 0.0 1.0 0.00 0.00 0.00 52 1017.4
20260504013105 59 264 0.0 1.0 0.00 0.00 0.00 52 1017.3
20260504012559 60 264 0.0 1.0 0.00 0.00 0.00 52 1017.1
20260504012055 60 264 0.0 2.0 0.00 0.00 0.00 51 1017.1
20260504011559 60 262 0.0 2.0 0.00 0.00 0.00 51 1017.0
20260504011057 60 255 0.0 2.0 0.00 0.00 0.00 50 1017.0
20260504010554 60 254 1.0 2.0 0.00 0.00 0.00 50 1017.1
20260504010059 60 264 1.0 2.0 0.00 0.00 0.00 50 1017.1
20260504005555 61 257 1.0 2.0 0.00 0.00 0.00 49 1017.1
20260504005057 61 293 0.0 2.0 0.00 0.00 0.00 49 1017.0
20260504004606 61 269 1.0 2.0 0.00 0.00 0.00 48 1017.0
20260504004055 61 277 1.0 3.0 0.00 0.00 0.00 48 1016.9
20260504003555 62 247 0.0 3.0 0.00 0.00 0.00 47 1016.8
20260504003057 62 261 1.0 2.0 0.00 0.00 0.00 47 1016.8
20260504002600 62 265 0.0 2.0 0.00 0.00 0.00 47 1016.7
20260504002055 62 257 1.0 2.0 0.00 0.00 0.00 46 1016.7
20260504001601 62 271 0.0 3.0 0.00 0.00 0.00 46 1016.6
20260504001055 63 262 1.0 3.0 0.00 0.00 0.00 45 1016.6
20260504000554 63 274 1.0 4.0 0.00 0.00 0.00 45 1016.6
20260504000058 63 274 1.0 4.0 0.00 0.00 0.00 45 1016.5
20260503235554 63 272 1.0 4.0 0.00 0.00 0.00 44 1016.4
20260503235055 64 271 2.0 5.0 0.00 0.00 0.00 43 1016.4
20260503234558 64 258 2.0 5.0 0.00 0.00 0.00 42 1016.4
20260503234055 64 252 2.0 5.0 0.00 0.00 0.00 40 1016.3
20260503233554 64 299 2.0 6.0 0.00 0.00 0.00 40 1016.4
20260503233056 64 265 3.0 6.0 0.00 0.00 0.00 40 1016.3
20260503232558 64 218 3.0 6.0 0.00 0.00 0.00 40 1016.4
20260503232055 65 271 3.0 7.0 0.00 0.00 0.00 38 1016.4
20260503231601 65 255 4.0 7.0 0.00 0.00 0.00 37 1016.5
20260503231055 65 248 3.0 7.0 0.00 0.00 0.00 38 1016.4
20260503230557 65 245 3.0 6.0 0.00 0.00 0.00 37 1016.5
20260503230106 65 238 3.0 6.0 0.00 0.00 0.00 36 1016.5
20260503225556 65 256 3.0 5.0 0.00 0.00 0.00 36 1016.5
20260503225056 66 269 2.0 5.0 0.00 0.00 0.00 35 1016.6
20260503224604 66 257 2.0 5.0 0.00 0.00 0.00 37 1016.6
20260503224055 66 257 2.0 6.0 0.00 0.00 0.00 37 1016.5
20260503223555 66 270 2.0 7.0 0.00 0.00 0.00 39 1016.5
20260503223059 66 238 3.0 7.0 0.00 0.00 0.00 39 1016.5
20260503222557 66 223 3.0 6.0 0.00 0.00 0.00 38 1016.6
20260503222054 66 250 2.0 5.0 0.00 0.00 0.00 37 1016.5
20260503221604 66 262 3.0 6.0 0.00 0.00 0.00 37 1016.5
20260503221056 66 285 3.0 8.0 0.00 0.00 0.00 40 1016.5
20260503220555 66 270 3.0 8.0 0.00 0.00 0.00 39 1016.5
20260503220101 66 250 4.0 8.0 0.00 0.00 0.00 39 1016.5
20260503215555 66 252 4.0 8.0 0.00 0.00 0.00 41 1016.6
20260503215055 66 255 4.0 9.0 0.00 0.00 0.00 38 1016.6
20260503214557 66 333 5.0 9.0 0.00 0.00 0.00 36 1016.6
20260503214055 67 242 3.0 9.0 0.00 0.00 0.00 39 1016.7
20260503213558 67 266 4.0 8.0 0.00 0.00 0.00 39 1016.7
20260503213103 67 216 4.0 8.0 0.00 0.00 0.00 38 1016.7
20260503212555 67 259 4.0 10.0 0.00 0.00 0.00 40 1016.7
20260503212054 67 254 6.0 10.0 0.00 0.00 0.00 39 1016.8
20260503211612 67 237 4.0 6.0 0.00 0.00 0.00 39 1016.9
20260503211055 68 269 3.0 6.0 0.00 0.00 0.00 39 1016.7
20260503210556 68 252 2.0 8.0 0.00 0.00 0.00 37 1016.8
20260503210057 68 281 3.0 8.0 0.00 0.00 0.00 40 1016.9
20260503205556 68 247 3.0 7.0 0.00 0.00 0.00 37 1016.9
20260503205056 68 259 4.0 7.0 0.00 0.00 0.00 37 1017.0
20260503204557 68 257 4.0 8.0 0.00 0.00 0.00 37 1017.0
20260503204054 68 263 5.0 8.0 0.00 0.00 0.00 39 1017.1
20260503203555 69 250 4.0 7.0 0.00 0.00 0.00 38 1017.2
20260503203057 69 255 2.0 6.0 0.00 0.00 0.00 41 1017.3
20260503202556 69 252 3.0 6.0 0.00 0.00 0.00 39 1017.3
20260503202059 69 243 4.0 6.0 0.00 0.00 0.00 39 1017.4
20260503201557 69 261 4.0 7.0 0.00 0.00 0.00 36 1017.4
20260503201056 69 271 4.0 8.0 0.00 0.00 0.00 38 1017.6
20260503200555 69 250 4.0 8.0 0.00 0.00 0.00 38 1017.7
20260503200113 69 249 2.0 6.0 0.00 0.00 0.00 38 1017.7
20260503195555 69 231 2.0 6.0 0.00 0.00 0.00 38 1017.9
20260503195055 69 236 3.0 8.0 0.00 0.00 0.00 37 1017.9
20260503194604 69 264 4.0 8.0 0.00 0.00 0.00 38 1018.0
20260503194055 69 265 2.0 5.0 0.00 0.00 0.00 39 1018.0
20260503193555 68 244 2.0 5.0 0.00 0.00 0.00 39 1018.2
20260503193102 68 232 3.0 6.0 0.00 0.00 0.00 37 1018.2
20260503192554 68 252 2.0 6.0 0.00 0.00 0.00 37 1018.5
20260503192054 68 254 4.0 6.0 0.00 0.00 0.00 36 1018.5
20260503191605 68 249 4.0 7.0 0.00 0.00 0.00 37 1018.6
20260503191056 67 263 3.0 7.0 0.00 0.00 0.00 35 1018.7
20260503190556 67 313 4.0 6.0 0.00 0.00 0.00 38 1018.8
20260503190056 67 243 4.0 6.0 0.00 0.00 0.00 38 1018.8
20260503185556 68 251 3.0 5.0 0.00 0.00 0.00 40 1018.8
20260503185056 68 255 3.0 5.0 0.00 0.00 0.00 45 1018.9
20260503184613 67 264 3.0 7.0 0.00 0.00 0.00 42 1018.9
20260503184055 67 278 4.0 7.0 0.00 0.00 0.00 42 1018.9
20260503183556 67 251 1.0 7.0 0.00 0.00 0.00 43 1018.9
20260503183100 67 179 4.0 7.0 0.00 0.00 0.00 44 1019.0
20260503182555 67 223 4.0 7.0 0.00 0.00 0.00 45 1018.9
20260503182055 66 246 4.0 6.0 0.00 0.00 0.00 47 1019.0
20260503181613 66 248 4.0 6.0 0.00 0.00 0.00 42 1019.1
20260503181057 66 247 3.0 7.0 0.00 0.00 0.00 47 1019.1
20260503180555 65 237 2.0 7.0 0.00 0.00 0.00 45 1019.2
20260503180116 65 238 4.0 6.0 0.00 0.00 0.00 46 1019.3
20260503175556 65 257 4.0 7.0 0.00 0.00 0.00 47 1019.4
20260503175055 64 252 4.0 7.0 0.00 0.00 0.00 47 1019.4
20260503174559 64 269 4.0 8.0 0.00 0.00 0.00 47 1019.4
20260503174056 64 248 4.0 8.0 0.00 0.00 0.00 46 1019.4
20260503173556 64 264 6.0 8.0 0.00 0.00 0.00 48 1019.5
20260503173106 64 255 4.0 7.0 0.00 0.00 0.00 47 1019.5
20260503172556 65 243 3.0 7.0 0.00 0.00 0.00 46 1019.6
20260503172055 64 224 3.0 5.0 0.00 0.00 0.00 49 1019.6
20260503171556 64 257 3.0 6.0 0.00 0.00 0.00 46 1019.6
20260503171055 64 246 3.0 6.0 0.00 0.00 0.00 46 1019.7
20260503170555 64 276 2.0 6.0 0.00 0.00 0.00 49 1019.7
20260503150557 60 273 2.0 4.0 0.00 0.00 0.00 50 1020.6
20260503150108 61 258 1.0 3.0 0.00 0.00 0.00 50 1020.6